TimeCST,TemperatureF,Dew PointF,Humidity,Sea Level PressureIn,VisibilityMPH,Wind Direction,Wind SpeedMPH,Gust SpeedMPH,PrecipitationIn,Events,Conditions,WindDirDegrees,DateUTC
12:53 AM,-0.0,-5.1,79,30.08,-9999.0,South,3.5,-,N/A,,Clear,180,2014-02-15 06:53:00
1:53 AM,-0.0,-4.0,83,30.06,-9999.0,Calm,Calm,-,N/A,,Clear,0,2014-02-15 07:53:00
2:53 AM,-0.9,-4.0,87,30.04,-9999.0,SSE,5.8,-,N/A,,Clear,160,2014-02-15 08:53:00
3:53 AM,-0.0,-4.0,83,30.04,-9999.0,SSE,6.9,-,N/A,,Clear,150,2014-02-15 09:53:00
4:53 AM,-0.9,-5.1,83,30.01,-9999.0,SSE,6.9,-,N/A,,Clear,160,2014-02-15 10:53:00
5:53 AM,-0.0,-4.0,83,30.00,-9999.0,SE,9.2,-,N/A,,Clear,140,2014-02-15 11:53:00
6:53 AM,-0.0,-2.9,88,29.97,-9999.0,SSE,6.9,-,N/A,,Clear,150,2014-02-15 12:53:00
7:53 AM,1.9,-2.0,83,29.96,-9999.0,SSE,10.4,-,N/A,,Scattered Clouds,150,2014-02-15 13:53:00
8:53 AM,5.0,-0.9,76,29.96,-9999.0,SSE,10.4,-,N/A,,Mostly Cloudy,160,2014-02-15 14:53:00
9:53 AM,9.0,1.9,73,29.94,-9999.0,SSE,9.2,-,N/A,,Overcast,150,2014-02-15 15:53:00
10:53 AM,10.9,3.0,70,29.93,-9999.0,SSE,16.1,-,N/A,,Overcast,150,2014-02-15 16:53:00
11:42 AM,12.9,6.1,74,29.86,1.0,SE,13.8,-,0.00,Snow,Light Snow,140,2014-02-15 17:42:00
11:53 AM,12.9,7.0,77,29.90,0.5,SSE,12.7,-,0.00,Snow,Snow,150,2014-02-15 17:53:00
12:01 PM,12.9,8.1,81,29.85,0.5,SSE,11.5,-,0.00,Snow,Snow,150,2014-02-15 18:01:00
12:15 PM,14.0,9.0,80,29.83,0.5,SE,15.0,-,0.02,Snow,Snow,140,2014-02-15 18:15:00
12:43 PM,15.1,10.9,84,29.82,0.2,SE,13.8,-,0.03,Fog-Snow,Snow,140,2014-02-15 18:43:00
12:53 PM,15.1,10.9,84,29.86,0.5,SE,16.1,-,0.03,Fog-Snow,Snow,140,2014-02-15 18:53:00
1:53 PM,17.1,12.9,84,29.84,0.5,SSE,12.7,-,0.01,Fog-Snow,Light Snow,150,2014-02-15 19:53:00
2:00 PM,18.0,12.9,81,29.80,1.0,SE,9.2,-,0.00,Snow,Light Snow,140,2014-02-15 20:00:00
2:09 PM,18.0,12.9,81,29.81,1.0,SSE,9.2,-,0.00,Snow,Light Snow,160,2014-02-15 20:09:00
2:25 PM,18.0,12.9,81,29.81,2.5,SSE,13.8,-,0.00,Snow,Light Snow,160,2014-02-15 20:25:00
2:53 PM,18.0,12.9,81,29.86,3.0,SSE,9.2,-,0.00,Snow,Light Snow,160,2014-02-15 20:53:00
3:53 PM,18.0,12.9,81,29.88,3.0,SSE,8.1,-,0.00,Snow,Light Snow,160,2014-02-15 21:53:00
4:44 PM,18.0,12.9,81,29.86,5.0,SSE,6.9,-,0.00,Snow,Light Snow,160,2014-02-15 22:44:00
4:53 PM,18.0,12.9,81,29.91,5.0,SSE,5.8,-,0.00,,Haze,160,2014-02-15 22:53:00
5:53 PM,18.0,12.9,81,29.95,-9999.0,Calm,Calm,-,N/A,,Overcast,0,2014-02-15 23:53:00
6:53 PM,18.0,12.9,81,29.98,5.0,Calm,Calm,-,0.00,,Haze,0,2014-02-16 00:53:00
7:53 PM,18.0,12.9,81,30.01,-9999.0,NW,6.9,-,N/A,,Overcast,320,2014-02-16 01:53:00
8:38 PM,18.0,12.9,81,29.98,-9999.0,NW,10.4,-,N/A,,Overcast,320,2014-02-16 02:38:00
8:53 PM,19.0,12.9,77,30.03,-9999.0,NW,11.5,-,N/A,,Overcast,320,2014-02-16 02:53:00
9:53 PM,19.0,12.9,77,30.04,-9999.0,NW,10.4,-,N/A,,Overcast,320,2014-02-16 03:53:00
10:53 PM,19.0,12.0,74,30.07,-9999.0,NNW,12.7,-,N/A,,Overcast,330,2014-02-16 04:53:00
11:53 PM,19.0,10.9,71,30.10,-9999.0,NNW,11.5,-,N/A,,Overcast,330,2014-02-16 05:53:00